User: anonymous   Login
Location: Melbourne
(37.8170°S, 144.9670°E)
Time: 06:22:44
(UTC+10:00)
Language:

CZ-3 R/B - Orbit

View from above orbital plane
View from above orbital plane
View from above satellite
View from above satellite

Ground track
Ground track

The orbit data is extracted from the following two-line orbital elements,

1 29517U 06048B   17114.84951557 +.00024444 +00000-0 +10325-2 0  9991
2 29517 028.4239 246.1467 4375734 104.8825 306.3414 06.79295110163927
Epoch (UTC): 24 April 2017 20:23:18
Eccentricity: 0.4375734
inclination: 28.4239°
perigee height: 245 km
apogee height: 10552 km
right ascension of ascending node: 246.1467°
argument of perigee: 104.8825°
revolutions per day: 6.79295110
mean anomaly at epoch: 306.3414°
orbit number at epoch: 16392

The dashed part of the orbit path shows where the satellite is in the earth's shadow,  

DLR